Content
SEND FEEDBACK

Daily
Averages
Monthly
Summary
Canada

QUEBEC CITY, QUEBEC


Home > North America > Canada > Quebec
Elevation: 239 feet     Latitude: 46 48N     Longitude: 071 23W

WEATHER
 
SELECT A DAY
Number of Records: 192,604;   Date Range: 6/30/96 - 8/31/14
 
SHARE

PRINT THIS DATA

[ ← Previous Day ]
WEATHER ALMANAC - SEPTEMBER 1, 2013
[ Next Day → ]
[ °C ]   °F
Weather ElementAverageHighLow
Temperature64.9 °F69.8 °F (2:00 pm)59 °F (2:00 am)
Dewpoint56.4 °F62.6 °F (1:00 am)51.8 °F (5:00 pm)
Humidity74.2 %100 % (2:00 am)46 % (5:00 pm)
Barometer29.90 in29.98 in (10:00 pm)29.78 in (2:00 am)
Wind Speed9.2 mph16.1 mph (1:00 pm)
Wind Gust21.9 mph (3:00 pm)
Weather ElementAverage
Visibility21 mi
Wind DirectionESE (106.9 °)

Weather ElementTotal
Precipitation---
Heating Degree Days0.6 (Base 65)
Growing Degree Days14.4 (Base 50)
Averaged from 29 records on September 1, 2013
WEATHER CONDITIONS BREAKOUT
WIND DIRECTION BREAKOUT
WEATHER BY HOUR - SEPTEMBER 1, 2013
[ °C ]   °F
Local TimeTemperatureDewpointHumidityBarometerVisibilityWind DirectionWind SpeedGust SpeedPrecipitationEventsConditions
1:00 AM64.4 °F62.6 °F94 %29.80 in15.0 miCalmScattered Clouds
2:00 AM59.0 °F59.0 °F98 %29.78 inNNW (340°)2.3 mph
2:00 AM60.8 °F60.8 °F100 %29.80 in15.0 miNW (320°)2.3 mphClear
3:00 AM62.6 °F60.8 °F94 %29.81 in15.0 miNorth (10°)2.3 mphPartly Cloudy
4:00 AM62.6 °F60.8 °F94 %29.82 in15.0 miNNE (30°)5.8 mphPartly Cloudy
5:00 AM60.0 °F58.0 °F93 %29.81 inNNW (330°)2.3 mph
5:00 AM60.8 °F59.0 °F94 %29.83 in15.0 miNNW (330°)5.8 mphPartly Cloudy
6:00 AM60.8 °F59.0 °F94 %29.87 in12.0 miNorth (350°)2.3 mphMostly Cloudy
7:00 AM62.6 °F59.0 °F88 %29.88 in20.0 miCalmMostly Cloudy
8:00 AM64.0 °F60.0 °F84 %29.86 inNE (50°)1.2 mph
8:00 AM64.4 °F60.8 °F88 %29.89 in20.0 miNE (40°)6.9 mphMostly Cloudy
9:00 AM68.0 °F60.8 °F78 %29.90 in20.0 miENE (60°)10.4 mphMostly Cloudy
10:00 AM68.0 °F57.2 °F68 %29.93 in25.0 miENE (60°)10.4 mphMostly Cloudy
11:00 AM68.0 °F57.2 °F68 %29.94 in25.0 miEast (90°)11.5 mphMostly Cloudy
11:00 AM68.0 °F58.0 °F63 %29.91 inEast (90°)10.4 mph
12:00 PM68.0 °F55.4 °F64 %29.94 in25.0 miEast (90°)13.8 mphMostly Cloudy
1:00 PM68.0 °F53.6 °F60 %29.95 in25.0 miENE (70°)16.1 mphMostly Cloudy
2:00 PM68.0 °F54.0 °F52 %29.94 inEast (80°)10.4 mph
2:00 PM69.8 °F53.6 °F56 %29.96 in25.0 miENE (70°)15.0 mphMostly Cloudy
3:00 PM68.0 °F53.6 °F60 %29.95 in30.0 miEast (90°)13.8 mph21.9 mphMostly Cloudy
4:00 PM68.0 °F53.6 °F60 %29.95 in30.0 miENE (70°)12.7 mph19.6 mphMostly Cloudy
5:00 PM68.0 °F51.8 °F56 %29.95 in30.0 miENE (70°)15.0 mph21.9 mphMostly Cloudy
5:00 PM68.0 °F52.0 °F46 %29.92 inEast (80°)11.5 mph
6:00 PM66.2 °F51.8 °F60 %29.96 in30.0 miENE (60°)13.8 mph21.9 mphMostly Cloudy
7:00 PM64.4 °F51.8 °F64 %29.96 in30.0 miENE (70°)12.7 mph19.6 mphMostly Cloudy
8:00 PM64.4 °F51.8 °F64 %29.97 in15.0 miENE (70°)11.5 mph21.9 mphMostly Cloudy
9:00 PM62.6 °F51.8 °F68 %29.97 in15.0 miENE (60°)16.1 mphScattered Clouds
10:00 PM62.6 °F53.6 °F72 %29.98 in15.0 miENE (60°)16.1 mphScattered Clouds
11:00 PM62.6 °F53.6 °F72 %29.98 in15.0 miENE (60°)15.0 mphScattered Clouds
Hourly data recorded from CYQB, located miles away from Quebec City, Quebec







STORIES FROM OUR PARTNERS